DLH6EM EDDF-EPKK

Flight info

Callsign DLH6EM
Flight time 1h 18m
Altitude 35000
Route TOBAK8M/25C TOBAK N858 SWALM T201 TAMEB DCT NEVKO DCT OMELO DCT OMIFU DCT ETUDA DCT SOPAV DCT PADKA
Aircraft A321/M-SDE3FGHIRWY/LB1

Departure

Time 2026-05-05 16:05
Airport Frankfurt Main Airport (EDDF)

Arrival

Time 2026-05-05 17:23
Airport Kraków John Paul II International Airport (EPKK)
Time Latitude Longitude Altitude Speed Heading
2026-05-05 15:31 50.04393 8.56166 356 ft 0 kts 155°
2026-05-05 15:53 50.04396 8.56164 356 ft 3 kts 155°
2026-05-05 15:54 50.04421 8.56147 360 ft 4 kts 162°
2026-05-05 15:54 50.04446 8.56139 356 ft 4 kts 191°
2026-05-05 15:54 50.04461 8.56152 360 ft 1 kts 250°
2026-05-05 15:58 50.04446 8.56088 358 ft 13 kts 249°
2026-05-05 15:58 50.04387 8.56031 356 ft 9 kts 169°
2026-05-05 15:58 50.04304 8.56101 358 ft 19 kts 126°
2026-05-05 15:59 50.04202 8.56259 356 ft 25 kts 164°
2026-05-05 15:59 50.04161 8.56416 357 ft 16 kts 71°
2026-05-05 15:59 50.04197 8.56573 362 ft 15 kts 70°
2026-05-05 15:59 50.04232 8.56719 360 ft 14 kts 70°
2026-05-05 16:00 50.04265 8.56859 361 ft 15 kts 70°
2026-05-05 16:00 50.04310 8.57045 365 ft 21 kts 69°
2026-05-05 16:00 50.04364 8.57276 363 ft 25 kts 70°
2026-05-05 16:00 50.04431 8.57553 365 ft 28 kts 69°
2026-05-05 16:01 50.04496 8.57826 366 ft 24 kts 70°
2026-05-05 16:01 50.04531 8.57976 367 ft 10 kts 69°
2026-05-05 16:01 50.04557 8.58081 368 ft 14 kts 69°
2026-05-05 16:01 50.04600 8.58264 373 ft 21 kts 69°
2026-05-05 16:02 50.04653 8.58498 370 ft 17 kts 82°
2026-05-05 16:02 50.04603 8.58584 369 ft 10 kts 156°
2026-05-05 16:02 50.04551 8.58619 371 ft 7 kts 157°
2026-05-05 16:02 50.04512 8.58640 371 ft 5 kts 175°
2026-05-05 16:03 50.04495 8.58616 371 ft 3 kts 243°
2026-05-05 16:03 50.04494 8.58612 371 ft 0 kts 246°
2026-05-05 16:04 50.04462 8.58481 370 ft 41 kts 249°
2026-05-05 16:04 50.04269 8.57680 362 ft 114 kts 249°
2026-05-05 16:04 50.03927 8.56232 452 ft 162 kts 249°
2026-05-05 16:05 50.03543 8.54600 1242 ft 160 kts 249°
2026-05-05 16:05 50.03146 8.52948 1888 ft 170 kts 249°
2026-05-05 16:05 50.02698 8.51125 2253 ft 190 kts 245°
2026-05-05 16:05 50.01777 8.49637 2763 ft 200 kts 205°
2026-05-05 16:06 50.00441 8.48986 3399 ft 202 kts 197°
2026-05-05 16:06 49.99086 8.48387 4031 ft 203 kts 198°
2026-05-05 16:06 49.97727 8.47785 4664 ft 204 kts 198°
2026-05-05 16:06 49.96357 8.47172 5274 ft 206 kts 197°
2026-05-05 16:07 49.95003 8.46342 5656 ft 219 kts 214°
2026-05-05 16:07 49.94017 8.44445 5870 ft 245 kts 249°
2026-05-05 16:07 49.93921 8.41720 6298 ft 266 kts 279°
2026-05-05 16:07 49.94321 8.38877 6970 ft 272 kts 282°
2026-05-05 16:08 49.95031 8.36124 7669 ft 280 kts 300°
2026-05-05 16:08 49.96306 8.33796 8393 ft 288 kts 318°
2026-05-05 16:08 49.98018 8.32138 9126 ft 294 kts 335°
2026-05-05 16:08 49.99920 8.30906 9846 ft 298 kts 336°
2026-05-05 16:09 50.01908 8.29734 10217 ft 317 kts 343°
2026-05-05 16:09 50.04145 8.29068 10359 ft 340 kts 355°
2026-05-05 16:09 50.06579 8.29089 10549 ft 358 kts
2026-05-05 16:09 50.09082 8.28822 11026 ft 365 kts 345°
2026-05-05 16:10 50.11406 8.27205 11622 ft 368 kts 326°
2026-05-05 16:10 50.13554 8.25019 12259 ft 371 kts 328°
2026-05-05 16:10 50.15777 8.22953 12949 ft 373 kts 327°
2026-05-05 16:10 50.17806 8.20431 13608 ft 373 kts 315°
2026-05-05 16:11 50.19625 8.17617 14608 ft 359 kts 314°
2026-05-05 16:11 50.26245 8.14214 17048 ft 347 kts 13°
2026-05-05 16:12 50.28491 8.15570 17630 ft 348 kts 33°
2026-05-05 16:12 50.31740 8.21070 18649 ft 349 kts 57°
2026-05-05 16:13 50.37203 8.29237 19255 ft 386 kts 45°
2026-05-05 16:13 50.38982 8.32447 19380 ft 396 kts 53°
2026-05-05 16:13 50.40709 8.35897 19509 ft 408 kts 54°
2026-05-05 16:14 50.44252 8.43015 20319 ft 418 kts 54°
2026-05-05 16:14 50.47844 8.50262 21239 ft 424 kts 55°
2026-05-05 16:15 50.50701 8.58384 22132 ft 428 kts 65°
2026-05-05 16:15 50.53402 8.66788 23001 ft 434 kts 65°
2026-05-05 16:16 50.56129 8.75317 23743 ft 439 kts 66°
2026-05-05 16:16 50.58934 8.83907 24414 ft 444 kts 64°
2026-05-05 16:17 50.61423 8.91036 24988 ft 449 kts 63°
2026-05-05 16:17 50.62952 8.95334 25319 ft 451 kts 63°
2026-05-05 16:18 50.66020 9.04008 25981 ft 456 kts 64°
2026-05-05 16:18 50.67548 9.08395 26343 ft 458 kts 64°
2026-05-05 16:18 50.70601 9.17283 27048 ft 463 kts 65°
2026-05-05 16:19 50.71854 9.21947 27345 ft 461 kts 75°
2026-05-05 16:19 50.72683 9.26829 27650 ft 461 kts 80°
2026-05-05 16:19 50.74167 9.36719 28242 ft 465 kts 80°
2026-05-05 16:20 50.75669 9.46692 28796 ft 469 kts 79°
2026-05-05 16:20 50.77177 9.56757 29345 ft 472 kts 79°
2026-05-05 16:21 50.78671 9.66848 30015 ft 471 kts 80°
2026-05-05 16:22 50.80894 9.81923 30966 ft 468 kts 80°
2026-05-05 16:22 50.81694 9.91940 31499 ft 461 kts 94°
2026-05-05 16:23 50.81732 10.02121 31966 ft 465 kts 91°
2026-05-05 16:23 50.81890 10.07226 32254 ft 465 kts 90°
2026-05-05 16:23 50.82347 10.17432 32852 ft 465 kts 89°
2026-05-05 16:24 50.82576 10.22530 33152 ft 464 kts 90°
2026-05-05 16:24 50.82783 10.27633 33460 ft 464 kts 90°
2026-05-05 16:24 50.83138 10.37802 34002 ft 463 kts 91°
2026-05-05 16:25 50.83298 10.42888 34242 ft 463 kts 91°
2026-05-05 16:25 50.83603 10.53036 34709 ft 463 kts 91°
2026-05-05 16:25 50.83757 10.58133 34806 ft 463 kts 91°
2026-05-05 16:26 50.83632 10.78303 34928 ft 456 kts 103°
2026-05-05 16:27 50.83097 10.83238 35153 ft 456 kts 104°
2026-05-05 16:27 50.82514 10.88107 35349 ft 457 kts 105°
2026-05-05 16:27 50.81935 10.93121 35534 ft 458 kts 104°
2026-05-05 16:27 50.81423 10.98043 35757 ft 459 kts 103°
2026-05-05 16:28 50.80959 11.03044 36008 ft 459 kts 102°
2026-05-05 16:28 50.80532 11.08053 36243 ft 460 kts 101°
2026-05-05 16:28 50.80119 11.13063 36450 ft 460 kts 101°
2026-05-05 16:28 50.79700 11.18080 36651 ft 460 kts 102°
2026-05-05 16:29 50.79271 11.23089 36802 ft 461 kts 102°
2026-05-05 16:29 50.78831 11.28097 36812 ft 461 kts 102°
2026-05-05 16:29 50.77921 11.38142 36810 ft 463 kts 102°
2026-05-05 16:30 50.76990 11.48212 36810 ft 463 kts 102°
2026-05-05 16:30 50.76057 11.58284 36805 ft 464 kts 102°
2026-05-05 16:31 50.75118 11.68366 36801 ft 464 kts 102°
2026-05-05 16:31 50.74171 11.78438 36786 ft 464 kts 102°
2026-05-05 16:32 50.73220 11.88527 36791 ft 465 kts 102°
2026-05-05 16:32 50.72254 11.98635 36803 ft 465 kts 103°
2026-05-05 16:33 50.71282 12.08666 36806 ft 466 kts 103°
2026-05-05 16:33 50.70295 12.18773 36819 ft 466 kts 103°
2026-05-05 16:34 50.69300 12.28880 36811 ft 466 kts 103°
2026-05-05 16:34 50.68294 12.39001 36816 ft 467 kts 103°
2026-05-05 16:35 50.67294 12.49044 36813 ft 467 kts 103°
2026-05-05 16:35 50.66266 12.59216 36822 ft 467 kts 103°
2026-05-05 16:36 50.65233 12.69333 36814 ft 467 kts 103°
2026-05-05 16:36 50.64183 12.79367 36809 ft 468 kts 103°
2026-05-05 16:37 50.63127 12.89488 36810 ft 468 kts 103°
2026-05-05 16:37 50.62073 12.99606 36814 ft 468 kts 103°
2026-05-05 16:38 50.61009 13.09728 36817 ft 469 kts 103°
2026-05-05 16:38 50.59929 13.19851 36804 ft 469 kts 103°
2026-05-05 16:39 50.58833 13.29974 36809 ft 470 kts 103°
2026-05-05 16:39 50.57730 13.40112 36815 ft 470 kts 103°
2026-05-05 16:40 50.56620 13.50248 36816 ft 471 kts 103°
2026-05-05 16:40 50.55501 13.60389 36820 ft 471 kts 103°
2026-05-05 16:41 50.54374 13.70528 36821 ft 471 kts 103°
2026-05-05 16:41 50.53238 13.80662 36822 ft 471 kts 103°
2026-05-05 16:42 50.52087 13.90796 36823 ft 471 kts 103°
2026-05-05 16:42 50.50936 14.00925 36822 ft 471 kts 103°
2026-05-05 16:43 50.49782 14.11049 36819 ft 470 kts 103°
2026-05-05 16:43 50.48613 14.21155 36823 ft 470 kts 103°
2026-05-05 16:44 50.47429 14.31251 36820 ft 470 kts 103°
2026-05-05 16:44 50.46234 14.41343 36814 ft 470 kts 103°
2026-05-05 16:45 50.45039 14.51414 36802 ft 470 kts 103°
2026-05-05 16:45 50.43834 14.61495 36802 ft 470 kts 103°
2026-05-05 16:46 50.42616 14.71559 36804 ft 469 kts 103°
2026-05-05 16:46 50.41399 14.81619 36799 ft 470 kts 103°
2026-05-05 16:47 50.40174 14.91673 36797 ft 470 kts 103°
2026-05-05 16:47 50.38939 15.01653 36784 ft 470 kts 103°
2026-05-05 16:48 50.37689 15.11698 36790 ft 470 kts 103°
2026-05-05 16:48 50.36436 15.21737 36785 ft 470 kts 103°
2026-05-05 16:49 50.35173 15.31773 36786 ft 470 kts 103°
2026-05-05 16:49 50.33895 15.41796 36774 ft 469 kts 103°
2026-05-05 16:50 50.32612 15.51803 36782 ft 469 kts 103°
2026-05-05 16:50 50.31326 15.61821 36784 ft 469 kts 103°
2026-05-05 16:51 50.30033 15.71829 36780 ft 469 kts 103°
2026-05-05 16:51 50.28727 15.81818 36782 ft 469 kts 104°
2026-05-05 16:52 50.27415 15.91737 36779 ft 469 kts 103°
2026-05-05 16:52 50.26089 16.01712 36784 ft 469 kts 103°
2026-05-05 16:53 50.24761 16.11675 36788 ft 468 kts 103°
2026-05-05 16:53 50.23426 16.21632 36791 ft 468 kts 103°
2026-05-05 16:54 50.22077 16.31580 36779 ft 468 kts 103°
2026-05-05 16:54 50.20725 16.41525 36790 ft 468 kts 103°
2026-05-05 16:55 50.19363 16.51459 36793 ft 468 kts 104°
2026-05-05 16:55 50.17989 16.61374 36798 ft 467 kts 104°
2026-05-05 16:56 50.16626 16.71216 36802 ft 467 kts 104°
2026-05-05 16:56 50.15239 16.81126 36800 ft 467 kts 104°
2026-05-05 16:57 50.13845 16.91017 36803 ft 467 kts 104°
2026-05-05 16:57 50.12440 17.00901 36806 ft 467 kts 104°
2026-05-05 16:58 50.11031 17.10782 36810 ft 467 kts 104°
2026-05-05 16:58 50.09614 17.20653 36802 ft 467 kts 104°
2026-05-05 16:59 50.08182 17.30527 36804 ft 467 kts 104°
2026-05-05 16:59 50.06756 17.40336 36809 ft 468 kts 104°
2026-05-05 17:00 50.05310 17.50212 36813 ft 468 kts 104°
2026-05-05 17:00 50.03848 17.60085 36806 ft 468 kts 104°
2026-05-05 17:01 50.02384 17.69947 36817 ft 468 kts 104°
2026-05-05 17:01 50.01641 17.79959 36817 ft 468 kts 91°
2026-05-05 17:02 50.01633 17.90086 36820 ft 469 kts 90°
2026-05-05 17:02 50.01640 18.00220 36817 ft 469 kts 90°
2026-05-05 17:03 50.01637 18.10353 36818 ft 469 kts 91°
2026-05-05 17:03 50.01629 18.15427 36351 ft 471 kts 91°
2026-05-05 17:03 50.01617 18.20547 35546 ft 473 kts 91°
2026-05-05 17:04 50.01606 18.23935 35022 ft 474 kts 91°
2026-05-05 17:04 50.01584 18.29060 34230 ft 475 kts 91°
2026-05-05 17:04 50.01552 18.35890 33009 ft 479 kts 91°
2026-05-05 17:04 50.01528 18.41069 32095 ft 479 kts 91°
2026-05-05 17:05 50.01505 18.46259 31161 ft 481 kts 91°
2026-05-05 17:05 50.01488 18.49772 30526 ft 482 kts 91°
2026-05-05 17:05 50.01452 18.56704 29028 ft 486 kts 91°
2026-05-05 17:05 50.01431 18.60253 28335 ft 485 kts 91°
2026-05-05 17:06 50.01397 18.65493 27228 ft 485 kts 91°
2026-05-05 17:06 50.01360 18.70761 26280 ft 484 kts 91°
2026-05-05 17:06 50.01324 18.75888 25381 ft 481 kts 91°
2026-05-05 17:06 50.01284 18.81104 24373 ft 482 kts 91°
2026-05-05 17:07 50.01241 18.86281 23639 ft 476 kts 91°
2026-05-05 17:07 50.01196 18.91408 22795 ft 471 kts 91°
2026-05-05 17:07 50.01152 18.96460 22083 ft 464 kts 92°
2026-05-05 17:07 50.01106 19.01433 21334 ft 457 kts 92°
2026-05-05 17:08 50.01057 19.06332 20615 ft 449 kts 92°
2026-05-05 17:08 50.01005 19.11144 19899 ft 442 kts 93°
2026-05-05 17:08 50.00951 19.15886 19220 ft 435 kts 93°
2026-05-05 17:08 50.00896 19.20560 18551 ft 429 kts 93°
2026-05-05 17:09 50.00841 19.25164 17880 ft 423 kts 93°
2026-05-05 17:09 50.00788 19.29701 17245 ft 415 kts 94°
2026-05-05 17:09 50.00735 19.34141 16665 ft 407 kts 94°
2026-05-05 17:09 50.00681 19.38495 16113 ft 399 kts 94°
2026-05-05 17:10 50.00623 19.42772 15560 ft 392 kts 94°
2026-05-05 17:10 50.00565 19.46973 15001 ft 386 kts 94°
2026-05-05 17:10 50.00507 19.51108 14441 ft 380 kts 94°
2026-05-05 17:10 50.00449 19.55193 13890 ft 377 kts 95°
2026-05-05 17:11 50.00390 19.59255 13279 ft 375 kts 94°
2026-05-05 17:11 50.00328 19.63302 12687 ft 373 kts 94°
2026-05-05 17:11 50.00266 19.67311 12093 ft 370 kts 94°
2026-05-05 17:11 50.00203 19.71286 11547 ft 363 kts 94°
2026-05-05 17:12 50.00141 19.75117 11417 ft 346 kts 94°
2026-05-05 17:12 50.00082 19.78771 11290 ft 330 kts 95°
2026-05-05 17:12 50.00025 19.82257 11166 ft 316 kts 95°
2026-05-05 17:12 49.99983 19.85598 11042 ft 304 kts 91°
2026-05-05 17:13 50.00236 19.88804 10919 ft 295 kts 81°
2026-05-05 17:13 50.00657 19.91860 10783 ft 284 kts 81°
2026-05-05 17:13 50.01061 19.94832 10578 ft 278 kts 81°
2026-05-05 17:13 50.01454 19.97756 10320 ft 275 kts 81°
2026-05-05 17:14 50.01843 20.00653 10007 ft 274 kts 81°
2026-05-05 17:14 50.02232 20.03546 9678 ft 273 kts 81°
2026-05-05 17:14 50.02621 20.06435 9345 ft 272 kts 81°
2026-05-05 17:14 50.03007 20.09305 9024 ft 271 kts 81°
2026-05-05 17:15 50.03394 20.12165 8694 ft 270 kts 81°
2026-05-05 17:15 50.03780 20.15013 8379 ft 269 kts 82°
2026-05-05 17:15 50.04164 20.17848 8063 ft 267 kts 81°
2026-05-05 17:15 50.04674 20.20608 7743 ft 268 kts 63°
2026-05-05 17:16 50.05910 20.22735 7406 ft 268 kts 30°
2026-05-05 17:16 50.07623 20.23591 7076 ft 263 kts 358°
2026-05-05 17:16 50.09408 20.23220 6699 ft 259 kts 344°
2026-05-05 17:16 50.11150 20.22511 6341 ft 256 kts 329°
2026-05-05 17:17 50.12464 20.20851 6009 ft 242 kts 299°
2026-05-05 17:17 50.13073 20.18512 5675 ft 229 kts 270°
2026-05-05 17:17 50.12950 20.16110 5326 ft 219 kts 254°
2026-05-05 17:17 50.12632 20.13809 5018 ft 214 kts 253°
2026-05-05 17:18 50.12318 20.11565 4740 ft 209 kts 253°
2026-05-05 17:18 50.12020 20.09385 4473 ft 201 kts 253°
2026-05-05 17:18 50.11742 20.07337 4203 ft 190 kts 253°
2026-05-05 17:18 50.11475 20.05379 3975 ft 180 kts 253°
2026-05-05 17:19 50.11221 20.03511 3742 ft 172 kts 252°
2026-05-05 17:19 50.10975 20.01719 3517 ft 166 kts 253°
2026-05-05 17:19 50.10737 19.99980 3304 ft 162 kts 253°
2026-05-05 17:19 50.10504 19.98282 3094 ft 158 kts 253°
2026-05-05 17:20 50.10279 19.96639 2891 ft 152 kts 253°
2026-05-05 17:20 50.10065 19.95073 2701 ft 144 kts 252°
2026-05-05 17:20 50.09861 19.93589 2514 ft 138 kts 251°
2026-05-05 17:20 50.09660 19.92130 2336 ft 136 kts 251°
2026-05-05 17:21 50.09462 19.90694 2156 ft 135 kts 251°
2026-05-05 17:21 50.09266 19.89259 1937 ft 136 kts 252°
2026-05-05 17:21 50.09081 19.87814 1789 ft 136 kts 251°
2026-05-05 17:22 50.08699 19.84936 1484 ft 136 kts 252°
2026-05-05 17:22 50.08471 19.83502 1326 ft 135 kts 252°
2026-05-05 17:22 50.08271 19.82055 1140 ft 139 kts 253°
2026-05-05 17:22 50.08069 19.80585 939 ft 136 kts 253°
2026-05-05 17:23 50.07870 19.79171 798 ft 125 kts 254°
2026-05-05 17:23 50.07737 19.78212 794 ft 57 kts 257°
2026-05-05 17:23 50.07654 19.77652 795 ft 50 kts 257°
2026-05-05 17:23 50.07587 19.77164 800 ft 41 kts 258°
2026-05-05 17:24 50.07525 19.76863 802 ft 22 kts 216°
2026-05-05 17:24 50.07378 19.76882 800 ft 22 kts 167°
2026-05-05 17:24 50.07320 19.77010 800 ft 16 kts 85°
2026-05-05 17:24 50.07339 19.77187 800 ft 17 kts 77°
2026-05-05 17:25 50.07366 19.77377 800 ft 19 kts 78°
2026-05-05 17:25 50.07386 19.77517 800 ft 20 kts 77°
2026-05-05 17:25 50.07427 19.77815 800 ft 22 kts 77°
2026-05-05 17:25 50.07462 19.78062 800 ft 24 kts 78°
2026-05-05 17:26 50.07498 19.78333 800 ft 27 kts 78°
2026-05-05 17:26 50.07537 19.78617 800 ft 27 kts 78°
2026-05-05 17:26 50.07575 19.78885 800 ft 24 kts 76°
2026-05-05 17:26 50.07613 19.79148 800 ft 26 kts 77°
2026-05-05 17:27 50.07652 19.79435 800 ft 28 kts 79°
2026-05-05 17:27 50.07695 19.79734 800 ft 17 kts 80°
2026-05-05 17:27 50.07699 19.79766 800 ft 3 kts 78°
2026-05-05 17:27 50.07707 19.79829 800 ft 9 kts 78°
2026-05-05 17:28 50.07702 19.79952 800 ft 14 kts 126°
2026-05-05 17:28 50.07597 19.79925 800 ft 17 kts 199°
2026-05-05 17:28 50.07479 19.79945 800 ft 18 kts 165°
2026-05-05 17:28 50.07366 19.80040 800 ft 18 kts 149°
2026-05-05 17:29 50.07334 19.80054 800 ft 0 kts 165°